• In Denmark
  • List of Countries
  • For 7 days
  • Water Temperature
  • Satellite Maps
  • Weather Map
  • Weather Widgets
  • user-avatar
    Login

    Hourly Weather Klagenfurt

    Today, 18 October, Thursday

    Time Temperature Precipitation Wind Pressure Humidity
    00:00 +10°C° 0.1 mm 1 mps 691 mmHg 94%
    01:00 +11°C° 0 mm 1 mps 691 mmHg 95%
    02:00 +10°C° 0.1 mm 1 mps 691 mmHg 95%
    03:00 +10°C° 0.1 mm 1 mps 691 mmHg 95%
    04:00 +10°C° 0.1 mm 1 mps 690 mmHg 95%
    05:00 +10°C° 0.1 mm 1 mps 690 mmHg 95%
    06:00 +10°C° 0.1 mm 1 mps 690 mmHg 95%
    07:00 +10°C° 0 mm 1 mps 691 mmHg 93%
    08:00 +12°C° 0 mm 1 mps 691 mmHg 85%
    09:00 +14°C° 0 mm 1 mps 691 mmHg 77%
    10:00 +18°C° 0 mm 1 mps 692 mmHg 70%
    11:00 +19°C° 0 mm 1 mps 692 mmHg 65%
    12:00 +20°C° 0 mm 1 mps 692 mmHg 61%
    13:00 +20°C° 0 mm 1 mps 692 mmHg 57%
    14:00 +20°C° 0.1 mm 1 mps 691 mmHg 61%
    15:00 +19°C° 0.1 mm 1 mps 691 mmHg 65%
    16:00 +18°C° 0.1 mm 1 mps 691 mmHg 70%
    17:00 +15°C° 0 mm 1 mps 691 mmHg 75%
    18:00 +14°C° 0 mm 1 mps 691 mmHg 81%
    19:00 +12°C° 0 mm 1 mps 691 mmHg 87%
    20:00 +11°C° 0 mm 1 mps 691 mmHg 88%
    21:00 +11°C° 0 mm 1 mps 691 mmHg 89%
    22:00 +11°C° 0 mm 1 mps 691 mmHg 90%
    23:00 +10°C° 0 mm 1 mps 691 mmHg 90%

    Tomorrow, 19 October, Friday

    Time Temperature Precipitation Wind Pressure Humidity
    00:00 +10°C° 0 mm 1 mps 691 mmHg 91%
    01:00 +10°C° 0 mm 1 mps 691 mmHg 92%
    02:00 +10°C° 0 mm 1 mps 691 mmHg 92%
    03:00 +9°C° 0 mm 1 mps 691 mmHg 92%
    04:00 +9°C° 0 mm 1 mps 691 mmHg 92%
    05:00 +9°C° 0 mm 1 mps 691 mmHg 92%
    06:00 +9°C° 0 mm 1 mps 692 mmHg 92%
    07:00 +9°C° 0 mm 1 mps 692 mmHg 92%
    08:00 +11°C° 0 mm 1 mps 692 mmHg 83%
    09:00 +14°C° 0 mm 1 mps 693 mmHg 74%
    10:00 +16°C° 0 mm 1 mps 694 mmHg 65%
    11:00 +18°C° 0 mm 1 mps 694 mmHg 61%
    12:00 +19°C° 0 mm 1 mps 694 mmHg 57%
    13:00 +20°C° 0 mm 1 mps 694 mmHg 53%
    14:00 +19°C° 0 mm 1 mps 694 mmHg 57%
    15:00 +18°C° 0 mm 1 mps 693 mmHg 61%
    16:00 +16°C° 0 mm 1 mps 693 mmHg 66%
    17:00 +14°C° 0 mm 1 mps 693 mmHg 72%
    18:00 +12°C° 0 mm 1 mps 693 mmHg 79%
    19:00 +10°C° 0 mm 1 mps 693 mmHg 86%
    20:00 +10°C° 0 mm 1 mps 694 mmHg 87%
    21:00 +10°C° 0 mm 1 mps 694 mmHg 88%
    22:00 +9°C° 0 mm 1 mps 694 mmHg 89%
    23:00 +9°C° 0 mm 1 mps 694 mmHg 90%

    Day after tomorrow, 20 October, Saturday

    Time Temperature Precipitation Wind Pressure Humidity
    00:00 +9°C° 0 mm 1 mps 694 mmHg 91%
    01:00 +8°C° 0 mm 1 mps 694 mmHg 91%
    02:00 +8°C° 0 mm 1 mps 694 mmHg 91%
    03:00 +8°C° 0 mm 1 mps 694 mmHg 91%
    04:00 +8°C° 0 mm 1 mps 694 mmHg 92%
    05:00 +8°C° 0 mm 1 mps 695 mmHg 91%
    06:00 +8°C° 0 mm 1 mps 695 mmHg 91%
    07:00 +8°C° 0 mm 1 mps 695 mmHg 90%
    08:00 +10°C° 0 mm 1 mps 696 mmHg 80%
    09:00 +13°C° 0 mm 1 mps 696 mmHg 70%
    10:00 +16°C° 0 mm 1 mps 697 mmHg 61%
    11:00 +16°C° 0 mm 1 mps 697 mmHg 57%
    12:00 +18°C° 0 mm 1 mps 697 mmHg 53%
    13:00 +19°C° 0 mm 1 mps 697 mmHg 49%
    14:00 +18°C° 0 mm 1 mps 697 mmHg 53%
    15:00 +16°C° 0 mm 1 mps 697 mmHg 58%
    16:00 +16°C° 0 mm 1 mps 696 mmHg 63%
    17:00 +14°C° 0 mm 1 mps 696 mmHg 70%
    18:00 +12°C° 0 mm 1 mps 696 mmHg 77%
    19:00 +10°C° 0 mm 1 mps 696 mmHg 84%
    20:00 +9°C° 0 mm 1 mps 696 mmHg 86%
    21:00 +9°C° 0 mm 1 mps 697 mmHg 87%
    22:00 +9°C° 0 mm 1 mps 697 mmHg 89%
    23:00 +8°C° 0 mm 1 mps 697 mmHg 90%

    21 October, Sunday

    Time Temperature Precipitation Wind Pressure Humidity
    00:00 +8°C° 0 mm 1 mps 697 mmHg 91%
    01:00 +8°C° 0 mm 1 mps 697 mmHg 91%
    02:00 +7°C° 0 mm 1 mps 697 mmHg 92%
    03:00 +7°C° 0 mm 1 mps 697 mmHg 92%
    04:00 +7°C° 0 mm 1 mps 697 mmHg 92%
    05:00 +6°C° 0 mm 1 mps 697 mmHg 92%
    06:00 +6°C° 0 mm 1 mps 697 mmHg 92%
    07:00 +6°C° 0 mm 1 mps 697 mmHg 91%
    08:00 +9°C° 0 mm 1 mps 697 mmHg 80%
    09:00 +11°C° 0 mm 1 mps 697 mmHg 69%
    10:00 +14°C° 0 mm 1 mps 697 mmHg 58%
    11:00 +15°C° 0 mm 1 mps 697 mmHg 53%
    12:00 +16°C° 0 mm 1 mps 697 mmHg 48%
    13:00 +18°C° 0 mm 1 mps 697 mmHg 43%
    14:00 +16°C° 0 mm 1 mps 696 mmHg 48%
    15:00 +15°C° 0 mm 1 mps 696 mmHg 53%
    16:00 +14°C° 0 mm 1 mps 696 mmHg 58%
    17:00 +12°C° 0 mm 1 mps 695 mmHg 64%
    18:00 +10°C° 0 mm 1 mps 695 mmHg 71%
    19:00 +8°C° 0 mm 1 mps 695 mmHg 77%
    20:00 +8°C° 0 mm 1 mps 695 mmHg 78%
    21:00 +7°C° 0 mm 1 mps 695 mmHg 79%
    22:00 +7°C° 0 mm 1 mps 695 mmHg 80%
    23:00 +7°C° 0 mm 1 mps 695 mmHg 80%

    22 October, Monday

    Time Temperature Precipitation Wind Pressure Humidity
    00:00 +6°C° 0 mm 1 mps 695 mmHg 80%
    01:00 +6°C° 0 mm 1 mps 694 mmHg 80%
    02:00 +6°C° 0 mm 1 mps 694 mmHg 80%
    03:00 +6°C° 0 mm 1 mps 694 mmHg 80%
    04:00 +5°C° 0 mm 1 mps 694 mmHg 80%
    05:00 +5°C° 0 mm 1 mps 694 mmHg 80%
    06:00 +5°C° 0 mm 1 mps 694 mmHg 79%
    07:00 +5°C° 0 mm 1 mps 694 mmHg 79%
    08:00 +8°C° 0 mm 1 mps 694 mmHg 70%
    09:00 +10°C° 0 mm 1 mps 695 mmHg 61%
    10:00 +13°C° 0 mm 1 mps 695 mmHg 53%
    11:00 +13°C° 0 mm 1 mps 695 mmHg 51%
    12:00 +14°C° 0 mm 1 mps 695 mmHg 48%
    13:00 +15°C° 0 mm 2 mps 695 mmHg 46%
    14:00 +14°C° 0 mm 1 mps 695 mmHg 51%
    15:00 +13°C° 0 mm 1 mps 695 mmHg 56%
    16:00 +13°C° 0 mm 1 mps 694 mmHg 61%
    17:00 +11°C° 0 mm 1 mps 694 mmHg 67%
    18:00 +9°C° 0 mm 1 mps 694 mmHg 74%
    19:00 +7°C° 0 mm 1 mps 694 mmHg 80%
    20:00 +7°C° 0 mm 1 mps 694 mmHg 82%
    21:00 +7°C° 0 mm 1 mps 694 mmHg 83%
    22:00 +6°C° 0 mm 1 mps 694 mmHg 85%
    23:00 +6°C° 0 mm 1 mps 694 mmHg 85%

    23 October, Tuesday

    Time Temperature Precipitation Wind Pressure Humidity
    00:00 +6°C° 0 mm 1 mps 694 mmHg 86%
    01:00 +5°C° 0 mm 1 mps 693 mmHg 87%
    02:00 +5°C° 0 mm 1 mps 693 mmHg 87%
    03:00 +5°C° 0 mm 1 mps 693 mmHg 88%
    04:00 +4°C° 0 mm 1 mps 692 mmHg 88%
    05:00 +4°C° 0 mm 1 mps 692 mmHg 88%
    06:00 +4°C° 0 mm 1 mps 692 mmHg 87%
    07:00 +4°C° 0 mm 1 mps 692 mmHg 87%
    08:00 +7°C° 0 mm 1 mps 692 mmHg 77%
    09:00 +9°C° 0 mm 1 mps 692 mmHg 67%
    10:00 +11°C° 0 mm 0 mps 692 mmHg 57%
    11:00 +13°C° 0 mm 1 mps 691 mmHg 53%
    12:00 +14°C° 0 mm 1 mps 691 mmHg 50%
    13:00 +15°C° 0 mm 1 mps 691 mmHg 46%
    14:00 +13°C° 0.1 mm 1 mps 690 mmHg 54%
    15:00 +12°C° 0.1 mm 1 mps 689 mmHg 61%
    16:00 +11°C° 0.1 mm 1 mps 689 mmHg 69%
    17:00 +10°C° 0.4 mm 1 mps 689 mmHg 74%
    18:00 +9°C° 0.4 mm 1 mps 688 mmHg 80%
    19:00 +7°C° 0.4 mm 1 mps 688 mmHg 86%
    20:00 +7°C° 0.1 mm 1 mps 688 mmHg 87%
    21:00 +6°C° 0.1 mm 1 mps 687 mmHg 89%
    22:00 +6°C° 0.1 mm 1 mps 687 mmHg 90%
    23:00 +6°C° 0.5 mm 1 mps 686 mmHg 90%
    Show more